Regional Weather Roundup
Issued by NWS

Home | Current Version | Previous Version | Graphics & Text | Print | Product List | Glossary On
Versions: 1 2 3 4 5 6 7 8 9 10 11 12 13 14 15 16 17 18 19 20 21 22 23 24 25 26 27 28 29 30 31 32 33 34 35 36 37 38 39 40 41 42 43 44 45 46 47 48 49 50
000
ASUS43 KDTX 220001
RWRMI
MICHIGAN HOURLY REGIONAL WEATHER ROUNDUP
NATIONAL WEATHER SERVICE DETROIT/PONTIAC MI
800 PM EDT SUN MAY 21 2017

NOTE: "FAIR" INDICATES FEW OR NO CLOUDS BELOW 12,000 FEET WITH NO
SIGNIFICANT WEATHER AND/OR OBSTRUCTION TO VISIBILITY.

MIZ047>049-052>055-059>063-066>070-074>076-081>083-220100-
SOUTHEAST LOWER MICHIGAN

CITY           SKY/WX    TMP DP  RH WIND       PRES   REMARKS
ADRIAN         PTCLDY    67  53  61 NW14G22   29.92R
6HR MIN TEMP:  67; 6HR MAX TEMP:  75;

ALMA           MOCLDY    62  46  56 W12G22    29.91R
ANN ARBOR      MOCLDY    69  54  58 W20G26    29.90R
BAD AXE        CLOUDY    66  56  69 W8        29.86R
6HR MIN TEMP:  64; 6HR MAX TEMP:  70;

CARO           CLOUDY    65  55  70 W14G22    29.87R
DETROIT CITY   PTCLDY    72  55  55 W17G24    29.87R
6HR MIN TEMP:  69; 6HR MAX TEMP:  76; 6HR PCP:  0.18;

DETROIT        PTCLDY    72  55  55 W16       29.89R
6HR MIN TEMP:  72; 6HR MAX TEMP:  77; 6HR PCP:  0.06;

FLINT          CLOUDY    64  52  64 W15       29.89R
6HR MIN TEMP:  64; 6HR MAX TEMP:  76; 6HR PCP: TRACE;

GROSSE ILE     PTCLDY    72  55  56 W10G22    29.88R
6HR MIN TEMP:  63; 6HR MAX TEMP:  76; 6HR PCP:  0.14;

HILLSDALE      CLOUDY    63  48  59 SW12G18   29.93R
HOWELL         CLOUDY    65  50  60 W13       29.91R
6HR MIN TEMP:  65; 6HR MAX TEMP:  73; 6HR PCP:  0.04;


CITY           SKY/WX    TMP DP  RH WIND       PRES   REMARKS
JACKSON        CLOUDY    65  51  60 W10G23    29.92R
6HR MIN TEMP:  65; 6HR MAX TEMP:  72;

LAMBERTVILLE   CLEAR     70  56  62 SW8       29.90R
6HR MIN TEMP:  70; 6HR MAX TEMP:  75;

LANSING        CLOUDY    63  47  55 W13       29.92R
6HR MIN TEMP:  63; 6HR MAX TEMP:  75; 6HR PCP: TRACE;

LAPEER         CLOUDY    70  55  58 SW6       29.87R
6HR MIN TEMP:  67; 6HR MAX TEMP:  75; 6HR PCP:  0.01;

MASON          CLOUDY    64  52  65 W9G16     29.91R
MONROE         CLEAR     71  56  58 W12G21    29.89R
6HR MIN TEMP:  70; 6HR MAX TEMP:  77; 6HR PCP:  0.04;

PONTIAC        MOCLDY    70  55  59 SW7       29.87R
6HR MIN TEMP:  64; 6HR MAX TEMP:  74; 6HR PCP:  0.82;

PORT HOPE        N/A     68  60  75 VRB5      29.83R
6HR MIN TEMP:  57; 6HR MAX TEMP:  71; 6HR PCP:  0.09;

PORT HURON     CLEAR     68  64  88 S3        29.86S
TRI CITIES     MOCLDY    64  50  60 W17G28    29.89R
6HR MIN TEMP:  64; 6HR MAX TEMP:  75;

MIDLAND        FAIR      64  45  49 W14G24    29.88R
6HR MIN TEMP:  64; 6HR MAX TEMP:  74;

TROY           PTCLDY    73  54  52 SW12G20   29.89R
SAGINAW HB     CLOUDY    64  46  52 SW17G23   29.88R
$$
MIZ043>046-050>051-056>058-064>065-071>073-077>080-220100-
SOUTHWEST LOWER MICHIGAN

CITY           SKY/WX    TMP DP  RH WIND       PRES   REMARKS
BATTLE CREEK   CLOUDY    62  49  62 W14       29.94R
6HR MIN TEMP:  62; 6HR MAX TEMP:  73;

BENTON HARBOR  CLOUDY    56  46  69 W18       29.97R
6HR MIN TEMP:  56; 6HR MAX TEMP:  66;

BIG RAPIDS     CLOUDY    57  44  60 W15       29.89S
6HR MIN TEMP:  57; 6HR MAX TEMP:  67;

COLDWATER      CLOUDY    63  50  62 W13       29.93S
6HR MIN TEMP:  63; 6HR MAX TEMP:  71;

FREMONT        CLOUDY    56  42  60 W10G17    29.92R
HOLLAND        CLOUDY    56  45  66 W13       29.95R
6HR MIN TEMP:  56; 6HR MAX TEMP:  66;

GRAND RAPIDS   CLOUDY    59  46  62 W20G25    29.93R
6HR MIN TEMP:  59; 6HR MAX TEMP:  70;

IONIA          CLOUDY    61  46  57 W20G25    29.91R
6HR MIN TEMP:  61; 6HR MAX TEMP:  71;

KALAMAZOO      CLOUDY    61  45  55 W8G20     29.95R
6HR MIN TEMP:  61; 6HR MAX TEMP:  73;

LUDINGTON      CLOUDY    50  45  81 SW9G17    29.89S
6HR MIN TEMP:  50; 6HR MAX TEMP:  60;

MARSHALL       CLOUDY    63  50  63 W9        29.92R
6HR MIN TEMP:  63; 6HR MAX TEMP:  72; 6HR PCP:  0.01;

MOUNT PLEASANT MOCLDY    61  44  52 W14G23    29.89R
6HR MIN TEMP:  61; 6HR MAX TEMP:  72;

MUSKEGON       CLOUDY    54  44  69 W14       29.93S
6HR MIN TEMP:  54; 6HR MAX TEMP:  64;

SOUTH HAVEN    CLOUDY    55  46  74 W10       29.97R
$$
MIZ016>042-220100-
NORTHERN LOWER MICHIGAN

CITY           SKY/WX    TMP DP  RH WIND       PRES   REMARKS
ALPENA         MOCLDY    61  58  90 SE5       29.81S
6HR MIN TEMP:  51; 6HR MAX TEMP:  67; 6HR PCP: TRACE;

BEAVER ISLAND  CLOUDY    52  44  74 SW12G17   29.83R
6HR MIN TEMP:  48; 6HR MAX TEMP:  56;

BELLAIRE       CLOUDY    60  42  52 SW6       29.86R
6HR MIN TEMP:  60; 6HR MAX TEMP:  73;

CADILLAC       CLOUDY    56  43  61 W10G17    29.87S
CHARLEVOIX     CLOUDY    57  44  60 SW9       29.88R
6HR MIN TEMP:  55; 6HR MAX TEMP:  71;

GAYLORD        SUNNY     60  41  49 SW22G29   29.85R
6HR MIN TEMP:  60; 6HR MAX TEMP:  71;

GRAYLING       CLOUDY    58  44  59 SW9       29.87R
6HR MIN TEMP:  58; 6HR MAX TEMP:  71;

HARBOR SPRINGS SUNNY     55  43  66 W7        29.84R
HOUGHTON LAKE  MOCLDY    59  45  59 SW15G22   29.88R
6HR MIN TEMP:  59; 6HR MAX TEMP:  69;

MANISTEE       CLOUDY    55  44  66 SW13G18   29.88R
OSCODA         PTCLDY    67  49  51 SW14G23   29.83R
6HR MIN TEMP:  54; 6HR MAX TEMP:  67;

PELLSTON       MOSUNNY   60  43  53 SW8G16    29.83R
6HR MIN TEMP:  56; 6HR MAX TEMP:  67; 6HR PCP: TRACE;

ROGERS CITY    LGT RAIN  54  50  86 NW7       29.84R
TRAVERSE CITY  CLOUDY    60  43  53 SW13G23   29.84R
6HR MIN TEMP:  60; 6HR MAX TEMP:  73;

$$
MIZ007>008-015-220100-
EASTERN UPPER MICHIGAN

CITY           SKY/WX    TMP DP  RH WIND       PRES   REMARKS
KINROSS        CLOUDY    49  49 100 E8        29.83F
6HR MIN TEMP:  47; 6HR MAX TEMP:  49; 6HR PCP:  0.01;

MACKINAC ISLAN CLOUDY    50  49  95 W8        29.83S
6HR MIN TEMP:  43; 6HR MAX TEMP:  50;

NEWBERRY       CLOUDY    50  49  97 S6        29.80R FOG
6HR MIN TEMP:  47; 6HR MAX TEMP:  51;

S. S. MARIE    LGT RAIN  51  49  92 E7        29.83F FOG
6HR MIN TEMP:  51; 6HR MAX TEMP:  52; 6HR PCP:  0.06;

MUNISING         N/A     53  50  89 S8        29.76F
6HR MIN TEMP:  51; 6HR MAX TEMP:  54;

$$
MIZ004>006-011>014-085-220100-
CENTRAL UPPER MICHIGAN

CITY           SKY/WX    TMP DP  RH WIND       PRES   REMARKS
MANISTIQUE     RAIN      43  40  89 S5        29.80S VSB 3/4
6HR MIN TEMP:  43; 6HR MAX TEMP:  48;

ESCANABA       CLOUDY    50  50 100 S3        29.79S FOG
6HR MIN TEMP:  48; 6HR MAX TEMP:  51; 6HR PCP:  0.02;

MENOMINEE      CLOUDY    57  46  66 SW9       29.80S
6HR MIN TEMP:  49; 6HR MAX TEMP:  58;

SAWYER-GWINN   DRIZZLE   52  50  93 S9        29.77R
$$
MIZ001>003-009>011-084-220100-
WESTERN UPPER MICHIGAN

CITY           SKY/WX    TMP DP  RH WIND       PRES   REMARKS
IRON MOUNTAIN  PTSUNNY   56  44  64 SW8       29.75S
6HR MIN TEMP:  50; 6HR MAX TEMP:  57; 6HR PCP: TRACE;

HOUGHTON       CLOUDY    50  48  93 CALM      29.72R
6HR MIN TEMP:  44; 6HR MAX TEMP:  53; 6HR PCP:  0.01;

COPPER HARBOR    N/A     50  48  93 CALM      29.71S
6HR MIN TEMP:  46; 6HR MAX TEMP:  51;

IRONWOOD       CLOUDY    51  49  92 SW8       29.75S
6HR MIN TEMP:  51; 6HR MAX TEMP:  54; 6HR PCP:  0.01;

$$

ABBREVIATIONS USED IN REMARKS
   TC - TEMPERATURE IN CELSIUS
  WCI - WIND CHILL INDEX
   HX - HEAT INDEX
  VSB - VISIBILITY





USA.gov is the U.S. government's official web portal to all federal, state and local government web resources and services.